Terminal Aerodrome Forecast
Issued by NWS

Home | Current Version | Previous Version | Text Only | Print | Product List | Glossary On
Versions: 1 2 3 4 5 6 7 8 9 10 11 12 13 14 15
000
FTUS41 KAKQ 231700
TAFPHF
TAF
KPHF 231738Z 2318/2418 08008KT P6SM FEW020 BKN030
     FM240000 06005KT P6SM BKN020
     FM241400 05012G18KT P6SM SCT020 BKN030=

USA.gov is the U.S. government's official web portal to all federal, state and local government web resources and services.